Estación de San Rafael
Ultimos registro cada 15 minutos 61
| N° | Estación | Fecha / Hora | Temperatura | Humedad | Lluvia | Velocidad | Dirección | Radiación | Presion |
| 61 | San Rafael | 06-05-2026 15:00 | 16,4 | 81,9 | 0 | 1 | 202 | 205,6 | 999,1 |
| 60 | San Rafael | 06-05-2026 14:45 | 16 | 84,1 | 0 | 0,5 | 213 | 205,6 | 998,8 |
| 59 | San Rafael | 06-05-2026 14:30 | 16,1 | 84,3 | 0,2 | 0,5 | 215 | 203,1 | 998,2 |
| 58 | San Rafael | 06-05-2026 14:15 | 15,8 | 86,3 | 0 | 0,5 | 222 | 121,9 | 998,3 |
| 57 | San Rafael | 06-05-2026 14:00 | 16,1 | 86,9 | 0 | 0,5 | 246 | 126,9 | 998,2 |
| 56 | San Rafael | 06-05-2026 13:45 | 16,4 | 91,5 | 0 | 0 | 261 | 286,9 | 997,8 |
| 55 | San Rafael | 06-05-2026 13:30 | 15,5 | 93,7 | 0 | 0 | 257 | 205,6 | 997,5 |
| 54 | San Rafael | 06-05-2026 13:15 | 15,4 | 91,5 | 0 | 1 | 241 | 188,1 | 997,7 |
| 53 | San Rafael | 06-05-2026 13:00 | 16,9 | 91,7 | 0 | 1,5 | 274 | 1035,6 | 996,7 |
| 52 | San Rafael | 06-05-2026 12:45 | 15,5 | 94,8 | 0 | 1,5 | 291 | 219,4 | 996,9 |
| 51 | San Rafael | 06-05-2026 12:30 | 15,3 | 95,2 | 0,2 | 2 | 295 | 273,1 | 996,7 |
| 50 | San Rafael | 06-05-2026 12:15 | 14,9 | 95,8 | 0,2 | 1 | 288 | 163,1 | 996,6 |
| 49 | San Rafael | 06-05-2026 12:00 | 14,8 | 95,4 | 0,2 | 1 | 310 | 124,4 | 996,4 |
| 48 | San Rafael | 06-05-2026 11:45 | 14,6 | 94,8 | 0,4 | 0,5 | 319 | 70,6 | 996,3 |
| 47 | San Rafael | 06-05-2026 11:30 | 14,5 | 94,5 | 0,2 | 1,5 | 345 | 9,4 | 996,1 |
| 46 | San Rafael | 06-05-2026 11:15 | 14,6 | 93,8 | 0 | 2 | 340 | 26,9 | 995,5 |
| 45 | San Rafael | 06-05-2026 11:00 | 14,7 | 93,8 | 0 | 1 | 324 | 14,4 | 995,9 |
| 44 | San Rafael | 06-05-2026 10:45 | 14,4 | 94,8 | 0 | 0,5 | 334 | 50,6 | 995,6 |
| 43 | San Rafael | 06-05-2026 10:30 | 14,4 | 95,3 | 0 | 1 | 343 | 19,4 | 995,4 |
| 42 | San Rafael | 06-05-2026 10:15 | 14,2 | 96,7 | 0 | 0,5 | 1 | 53,1 | 995,4 |
| 41 | San Rafael | 06-05-2026 10:00 | 13,6 | 97,3 | 0 | 0,5 | 3 | 96,9 | 994,9 |
| 40 | San Rafael | 06-05-2026 09:45 | 13,2 | 97,6 | 0,4 | 1 | 352 | 35,6 | 994,6 |
| 39 | San Rafael | 06-05-2026 09:30 | 13,1 | 97,5 | 0,2 | 0,5 | 347 | 3,1 | 995 |
| 38 | San Rafael | 06-05-2026 09:15 | 13 | 97,3 | 0,4 | 0 | 358 | 4,4 | 994,9 |
| 37 | San Rafael | 06-05-2026 09:00 | 13 | 97,2 | 0 | 0,5 | 357 | 30,6 | 994,9 |
| 36 | San Rafael | 06-05-2026 08:45 | 12,8 | 97 | 1,2 | 1 | 340 | 15,6 | 994,5 |
| 35 | San Rafael | 06-05-2026 08:30 | 12,8 | 96,2 | 3,4 | 0 | 337 | 0,6 | 994,8 |
| 34 | San Rafael | 06-05-2026 08:15 | 13 | 95,9 | 0,2 | 0,5 | 1 | 41,9 | 994,4 |
| 33 | San Rafael | 06-05-2026 08:00 | 12,6 | 95,9 | 0,2 | 0 | 22 | 43,1 | 994,4 |
| 32 | San Rafael | 06-05-2026 07:45 | 12,5 | 95,6 | 0,2 | 0 | 18 | 11,9 | 994,3 |
| 31 | San Rafael | 06-05-2026 07:30 | 12,5 | 95,1 | 0,4 | 1 | 354 | 0,6 | 994,2 |
| 30 | San Rafael | 06-05-2026 07:15 | 12,5 | 95 | 0 | 0,5 | 345 | 0,6 | 994,3 |
| 29 | San Rafael | 06-05-2026 07:00 | 12,4 | 94,5 | 0 | 0 | 331 | 0,6 | 993,9 |
| 28 | San Rafael | 06-05-2026 06:45 | 12,4 | 93,7 | 0,2 | 0 | 334 | 0,6 | 994 |
| 27 | San Rafael | 06-05-2026 06:30 | 12,4 | 92,7 | 0,8 | 0,5 | 334 | 0,6 | 994 |
| 26 | San Rafael | 06-05-2026 06:15 | 12,6 | 90,5 | 1,2 | 1,5 | 341 | 0,6 | 993,8 |
| 25 | San Rafael | 06-05-2026 06:00 | 13,9 | 83,3 | 0 | 3 | 3 | 0,6 | 993,8 |
| 24 | San Rafael | 06-05-2026 05:45 | 14,1 | 83,1 | 0 | 2,5 | 358 | 0,6 | 993,7 |
| 23 | San Rafael | 06-05-2026 05:30 | 14 | 83,8 | 0 | 2,5 | 345 | 0,6 | 993,7 |
| 22 | San Rafael | 06-05-2026 05:15 | 14,1 | 83,5 | 0 | 2,5 | 350 | 0,6 | 993,6 |
| 21 | San Rafael | 06-05-2026 05:00 | 14,2 | 83,9 | 0 | 3 | 1 | 0,6 | 993,6 |
| 20 | San Rafael | 06-05-2026 04:45 | 14 | 84,9 | 0 | 2,5 | 355 | 0,6 | 993,4 |
| 19 | San Rafael | 06-05-2026 04:30 | 13,7 | 86,2 | 0 | 2 | 352 | 0,6 | 993,8 |
| 18 | San Rafael | 06-05-2026 04:15 | 13,6 | 86,5 | 0 | 2 | 357 | 0,6 | 993,8 |
| 17 | San Rafael | 06-05-2026 04:00 | 13,4 | 87,5 | 0 | 2 | 357 | 0,6 | 993,8 |
| 16 | San Rafael | 06-05-2026 03:45 | 13,2 | 88,1 | 0 | 1,5 | 4 | 0,6 | 993,9 |
| 15 | San Rafael | 06-05-2026 03:30 | 13,1 | 88,2 | 0 | 1,5 | 4 | 0,6 | 993,9 |
| 14 | San Rafael | 06-05-2026 03:15 | 13 | 89,1 | 0 | 1 | 4 | 0,6 | 994,1 |
| 13 | San Rafael | 06-05-2026 03:00 | 12,8 | 89 | 0 | 1 | 4 | 0,6 | 994,3 |
| 12 | San Rafael | 06-05-2026 02:45 | 13,1 | 88,7 | 0 | 1,5 | 14 | 0,6 | 994,2 |
| 11 | San Rafael | 06-05-2026 02:30 | 12,9 | 89 | 0 | 1 | 14 | 0,6 | 994,4 |
| 10 | San Rafael | 06-05-2026 02:15 | 12,6 | 89 | 0 | 0,5 | 34 | 0,6 | 994,3 |
| 9 | San Rafael | 06-05-2026 02:00 | 12,7 | 88,7 | 0 | 0,5 | 32 | 0,6 | 994,4 |
| 8 | San Rafael | 06-05-2026 01:45 | 12,7 | 87,8 | 0 | 0 | 20 | 0,6 | 994,3 |
| 7 | San Rafael | 06-05-2026 01:30 | 13,4 | 86,5 | 0 | 0,5 | 14 | 0,6 | 994,4 |
| 6 | San Rafael | 06-05-2026 01:15 | 13,3 | 86,7 | 0 | 0,5 | 350 | 0,6 | 994,5 |
| 5 | San Rafael | 06-05-2026 01:00 | 13,7 | 86,7 | 0 | 1 | 358 | 0,6 | 994,6 |
| 4 | San Rafael | 06-05-2026 00:45 | 13,8 | 86,9 | 0 | 1 | 357 | 0,6 | 994,6 |
| 3 | San Rafael | 06-05-2026 00:30 | 13,6 | 87,2 | 0 | 1,5 | 3 | 0,6 | 994,9 |
| 2 | San Rafael | 06-05-2026 00:15 | 13,8 | 86,3 | 0 | 2 | 10 | 0,6 | 994,6 |
| 1 | San Rafael | 06-05-2026 00:00 | 13,9 | 85,7 | 0 | 2,5 | 10 | 0,6 | 994,8 |